SKU150 SCQP-SCEL

Flight info

Callsign SKU150
Flight time 0h 56m
Altitude 36000
Route KETIR7E KETIR UQ802 EROLO EROLO2D
Aircraft A21N/M-SDE2E3FGHIRWXY/LB1

Departure

Time 2026-04-19 03:16
Airport La Araucanía International Airport (SCQP)

Arrival

Time 2026-04-19 04:13
Airport Comodoro Arturo Merino Benítez International Airport (SCEL)
Time Latitude Longitude Altitude Speed Heading
2026-04-19 02:59 -38.92703 -72.64768 319 ft 0 kts 107°
2026-04-19 03:07 -38.92701 -72.64779 295 ft 4 kts 107°
2026-04-19 03:07 -38.92693 -72.64811 321 ft 3 kts 107°
2026-04-19 03:07 -38.92686 -72.64838 317 ft 4 kts 114°
2026-04-19 03:07 -38.92673 -72.64868 319 ft 4 kts 124°
2026-04-19 03:08 -38.92661 -72.64889 319 ft 0 kts 131°
2026-04-19 03:12 -38.92674 -72.64885 319 ft 4 kts 175°
2026-04-19 03:12 -38.92710 -72.64894 319 ft 7 kts 195°
2026-04-19 03:12 -38.92771 -72.64918 319 ft 11 kts 200°
2026-04-19 03:12 -38.92851 -72.64953 319 ft 14 kts 205°
2026-04-19 03:13 -38.92869 -72.65067 318 ft 16 kts 285°
2026-04-19 03:13 -38.92846 -72.65212 320 ft 18 kts 254°
2026-04-19 03:13 -38.92948 -72.65302 321 ft 20 kts 195°
2026-04-19 03:13 -38.93082 -72.65356 318 ft 21 kts 198°
2026-04-19 03:14 -38.93224 -72.65411 317 ft 22 kts 197°
2026-04-19 03:14 -38.93376 -72.65475 317 ft 24 kts 197°
2026-04-19 03:14 -38.93520 -72.65521 317 ft 18 kts 182°
2026-04-19 03:14 -38.93604 -72.65512 318 ft 7 kts 186°
2026-04-19 03:15 -38.93587 -72.65555 318 ft 9 kts
2026-04-19 03:15 -38.93544 -72.65539 317 ft 0 kts 17°
2026-04-19 03:15 -38.93497 -72.65521 317 ft 35 kts 17°
2026-04-19 03:16 -38.92919 -72.65293 321 ft 134 kts 17°
2026-04-19 03:16 -38.91836 -72.64868 703 ft 176 kts 17°
2026-04-19 03:16 -38.90588 -72.64421 1580 ft 199 kts 13°
2026-04-19 03:16 -38.89193 -72.64000 2345 ft 213 kts 12°
2026-04-19 03:17 -38.87673 -72.63535 2957 ft 239 kts 12°
2026-04-19 03:17 -38.85975 -72.63021 3645 ft 258 kts 13°
2026-04-19 03:17 -38.84198 -72.62481 4614 ft 265 kts 13°
2026-04-19 03:17 -38.82391 -72.61930 5637 ft 269 kts 13°
2026-04-19 03:18 -38.80561 -72.61370 6670 ft 272 kts 12°
2026-04-19 03:18 -38.78710 -72.60804 7632 ft 275 kts 12°
2026-04-19 03:18 -38.76857 -72.60237 8599 ft 279 kts 11°
2026-04-19 03:18 -38.74951 -72.59651 9620 ft 283 kts 10°
2026-04-19 03:19 -38.73007 -72.59058 10419 ft 296 kts 10°
2026-04-19 03:19 -38.70917 -72.58414 10804 ft 321 kts 10°
2026-04-19 03:19 -38.68660 -72.57718 11144 ft 346 kts 10°
2026-04-19 03:19 -38.66238 -72.56989 11458 ft 369 kts
2026-04-19 03:20 -38.63669 -72.56272 11828 ft 385 kts
2026-04-19 03:20 -38.61018 -72.55540 12473 ft 392 kts
2026-04-19 03:20 -38.58338 -72.54809 13177 ft 396 kts
2026-04-19 03:20 -38.55622 -72.54073 13866 ft 401 kts
2026-04-19 03:21 -38.52869 -72.53319 14469 ft 405 kts
2026-04-19 03:21 -38.50135 -72.52573 15062 ft 408 kts
2026-04-19 03:21 -38.47343 -72.51819 15628 ft 412 kts
2026-04-19 03:21 -38.44528 -72.51058 16206 ft 415 kts
2026-04-19 03:22 -38.41690 -72.50291 16777 ft 418 kts
2026-04-19 03:22 -38.38831 -72.49517 17333 ft 422 kts
2026-04-19 03:22 -38.35952 -72.48736 17874 ft 425 kts
2026-04-19 03:22 -38.33040 -72.47946 18408 ft 428 kts
2026-04-19 03:23 -38.30108 -72.47154 18883 ft 431 kts
2026-04-19 03:23 -38.27162 -72.46360 19347 ft 434 kts
2026-04-19 03:23 -38.24201 -72.45561 19810 ft 436 kts
2026-04-19 03:23 -38.21225 -72.44726 20303 ft 439 kts
2026-04-19 03:24 -38.18237 -72.43885 20807 ft 441 kts
2026-04-19 03:24 -38.15234 -72.43041 21299 ft 444 kts
2026-04-19 03:24 -38.12249 -72.42205 21791 ft 446 kts
2026-04-19 03:24 -38.09208 -72.41356 22295 ft 449 kts
2026-04-19 03:25 -38.06144 -72.40498 22811 ft 452 kts
2026-04-19 03:25 -38.03021 -72.39618 23338 ft 455 kts
2026-04-19 03:25 -37.99959 -72.38767 23830 ft 458 kts
2026-04-19 03:25 -37.96839 -72.37900 24253 ft 460 kts
2026-04-19 03:26 -37.93699 -72.37026 24667 ft 463 kts
2026-04-19 03:26 -37.90541 -72.36147 25075 ft 466 kts
2026-04-19 03:26 -37.87368 -72.35267 25542 ft 466 kts
2026-04-19 03:26 -37.84199 -72.34387 26076 ft 465 kts
2026-04-19 03:27 -37.81045 -72.33511 26608 ft 464 kts
2026-04-19 03:27 -37.77899 -72.32636 27144 ft 462 kts
2026-04-19 03:27 -37.74756 -72.31768 27641 ft 461 kts
2026-04-19 03:27 -37.71628 -72.30898 28172 ft 460 kts
2026-04-19 03:28 -37.68500 -72.30019 28691 ft 459 kts
2026-04-19 03:28 -37.65387 -72.29153 29208 ft 457 kts
2026-04-19 03:28 -37.62324 -72.28248 29728 ft 457 kts
2026-04-19 03:28 -37.59232 -72.27310 30240 ft 456 kts
2026-04-19 03:29 -37.56147 -72.26371 30669 ft 455 kts
2026-04-19 03:29 -37.53068 -72.25430 31083 ft 454 kts
2026-04-19 03:29 -37.50002 -72.24487 31516 ft 453 kts
2026-04-19 03:29 -37.46939 -72.23554 31943 ft 452 kts
2026-04-19 03:30 -37.43888 -72.22618 32360 ft 451 kts
2026-04-19 03:30 -37.41869 -72.22006 32638 ft 450 kts
2026-04-19 03:30 -37.38834 -72.21091 33046 ft 449 kts
2026-04-19 03:30 -37.35800 -72.20172 33445 ft 448 kts
2026-04-19 03:31 -37.32776 -72.19258 33827 ft 447 kts
2026-04-19 03:31 -37.29755 -72.18339 34161 ft 446 kts
2026-04-19 03:31 -37.26741 -72.17427 34490 ft 444 kts
2026-04-19 03:31 -37.23743 -72.16516 34793 ft 443 kts
2026-04-19 03:32 -37.20746 -72.15609 35060 ft 443 kts
2026-04-19 03:32 -37.17746 -72.14704 35328 ft 442 kts
2026-04-19 03:32 -37.14755 -72.13798 35586 ft 442 kts
2026-04-19 03:32 -37.11797 -72.12906 35830 ft 442 kts
2026-04-19 03:33 -37.08807 -72.12002 36056 ft 442 kts
2026-04-19 03:33 -37.02812 -72.10200 36113 ft 442 kts
2026-04-19 03:34 -36.96843 -72.08402 36107 ft 441 kts
2026-04-19 03:34 -36.90878 -72.06611 36103 ft 441 kts
2026-04-19 03:35 -36.84918 -72.04823 36102 ft 441 kts
2026-04-19 03:35 -36.78994 -72.03048 36069 ft 440 kts
2026-04-19 03:36 -36.73047 -72.01276 36097 ft 439 kts
2026-04-19 03:36 -36.67101 -71.99503 36099 ft 439 kts
2026-04-19 03:37 -36.61148 -71.97728 36091 ft 439 kts
2026-04-19 03:37 -36.55206 -71.95960 36057 ft 439 kts
2026-04-19 03:38 -36.49275 -71.94198 36087 ft 438 kts
2026-04-19 03:38 -36.43340 -71.92438 36093 ft 438 kts
2026-04-19 03:39 -36.37407 -71.90681 36071 ft 438 kts
2026-04-19 03:39 -36.31484 -71.88931 36051 ft 438 kts
2026-04-19 03:40 -36.25587 -71.87192 36075 ft 438 kts
2026-04-19 03:40 -36.19654 -71.85445 36083 ft 438 kts
2026-04-19 03:41 -36.13728 -71.83697 36085 ft 438 kts
2026-04-19 03:41 -36.07801 -71.81927 36082 ft 438 kts
2026-04-19 03:42 -36.01875 -71.80181 36066 ft 438 kts
2026-04-19 03:42 -35.95940 -71.78436 36077 ft 438 kts
2026-04-19 03:43 -35.90011 -71.76706 36081 ft 438 kts
2026-04-19 03:43 -35.84079 -71.74996 36080 ft 438 kts
2026-04-19 03:44 -35.78141 -71.73284 36063 ft 439 kts
2026-04-19 03:44 -35.72183 -71.71552 36076 ft 439 kts
2026-04-19 03:45 -35.66267 -71.69833 36074 ft 439 kts
2026-04-19 03:45 -35.60318 -71.68106 36072 ft 439 kts
2026-04-19 03:46 -35.54355 -71.66379 36045 ft 440 kts
2026-04-19 03:46 -35.48388 -71.64652 36067 ft 441 kts
2026-04-19 03:47 -35.42414 -71.62923 36067 ft 441 kts
2026-04-19 03:47 -35.36440 -71.61200 36064 ft 441 kts
2026-04-19 03:48 -35.30462 -71.59477 36038 ft 441 kts
2026-04-19 03:48 -35.24471 -71.57757 36059 ft 442 kts
2026-04-19 03:49 -35.18501 -71.56041 36062 ft 443 kts
2026-04-19 03:49 -35.12488 -71.54315 36057 ft 444 kts
2026-04-19 03:50 -35.06479 -71.52591 36046 ft 443 kts
2026-04-19 03:50 -35.00463 -71.50850 36039 ft 443 kts
2026-04-19 03:51 -34.94449 -71.49143 36055 ft 443 kts
2026-04-19 03:51 -34.88478 -71.47440 36060 ft 444 kts
2026-04-19 03:52 -34.82430 -71.45702 36048 ft 444 kts
2026-04-19 03:52 -34.76474 -71.44004 36036 ft 440 kts
2026-04-19 03:53 -34.70562 -71.42350 36046 ft 438 kts
2026-04-19 03:53 -34.64577 -71.40531 36049 ft 451 kts
2026-04-19 03:54 -34.58689 -71.37682 36042 ft 457 kts 12°
2026-04-19 03:54 -34.52813 -71.34744 35935 ft 451 kts 12°
2026-04-19 03:54 -34.49901 -71.33310 35598 ft 453 kts 12°
2026-04-19 03:55 -34.46976 -71.31880 35335 ft 454 kts 12°
2026-04-19 03:55 -34.44081 -71.30463 35058 ft 453 kts 12°
2026-04-19 03:55 -34.41165 -71.29030 34466 ft 452 kts 12°
2026-04-19 03:55 -34.38253 -71.27602 33733 ft 451 kts 12°
2026-04-19 03:56 -34.35339 -71.26174 32980 ft 452 kts 12°
2026-04-19 03:56 -34.32418 -71.24744 32196 ft 454 kts 12°
2026-04-19 03:56 -34.29488 -71.23311 31404 ft 456 kts 12°
2026-04-19 03:56 -34.26533 -71.21869 30567 ft 459 kts 13°
2026-04-19 03:57 -34.23569 -71.20408 29688 ft 461 kts 13°
2026-04-19 03:57 -34.20589 -71.18934 28747 ft 464 kts 13°
2026-04-19 03:57 -34.17591 -71.17458 27839 ft 465 kts 13°
2026-04-19 03:57 -34.14593 -71.15996 26922 ft 465 kts 13°
2026-04-19 03:58 -34.11585 -71.14536 25968 ft 467 kts 13°
2026-04-19 03:58 -34.08563 -71.13068 25039 ft 469 kts 13°
2026-04-19 03:58 -34.05571 -71.11613 24281 ft 468 kts 14°
2026-04-19 03:58 -34.02546 -71.10138 23452 ft 465 kts 14°
2026-04-19 03:59 -33.99556 -71.08684 22490 ft 462 kts 14°
2026-04-19 03:59 -33.96586 -71.07252 21792 ft 457 kts 15°
2026-04-19 03:59 -33.93642 -71.05836 21102 ft 453 kts 15°
2026-04-19 03:59 -33.90728 -71.04426 20335 ft 450 kts 15°
2026-04-19 04:00 -33.87830 -71.03023 19610 ft 447 kts 15°
2026-04-19 04:00 -33.84962 -71.01638 18858 ft 439 kts 16°
2026-04-19 04:00 -33.82160 -71.00280 18115 ft 430 kts 16°
2026-04-19 04:00 -33.79436 -70.98963 17371 ft 422 kts 17°
2026-04-19 04:01 -33.76737 -70.97660 16746 ft 415 kts 17°
2026-04-19 04:01 -33.71439 -70.95108 15563 ft 406 kts 17°
2026-04-19 04:01 -33.68826 -70.93850 14991 ft 402 kts 18°
2026-04-19 04:02 -33.66246 -70.92607 14481 ft 398 kts 18°
2026-04-19 04:02 -33.63682 -70.91372 13927 ft 395 kts 18°
2026-04-19 04:02 -33.61136 -70.90147 13284 ft 392 kts 18°
2026-04-19 04:02 -33.58624 -70.88941 12594 ft 385 kts 18°
2026-04-19 04:03 -33.56188 -70.87634 12006 ft 380 kts 25°
2026-04-19 04:03 -33.53955 -70.86036 11696 ft 366 kts 28°
2026-04-19 04:03 -33.51860 -70.84482 11472 ft 351 kts 28°
2026-04-19 04:03 -33.49832 -70.82979 11282 ft 335 kts 28°
2026-04-19 04:04 -33.47888 -70.81543 11117 ft 321 kts 28°
2026-04-19 04:04 -33.46021 -70.80169 10958 ft 308 kts 28°
2026-04-19 04:04 -33.44233 -70.78854 10819 ft 295 kts 27°
2026-04-19 04:04 -33.42518 -70.77593 10612 ft 286 kts 27°
2026-04-19 04:05 -33.40823 -70.76350 10207 ft 285 kts 27°
2026-04-19 04:05 -33.39130 -70.75111 9793 ft 284 kts 28°
2026-04-19 04:05 -33.37446 -70.73879 9364 ft 283 kts 28°
2026-04-19 04:05 -33.35771 -70.72652 8988 ft 280 kts 28°
2026-04-19 04:06 -33.34134 -70.71452 8796 ft 271 kts 28°
2026-04-19 04:06 -33.32559 -70.70297 8656 ft 260 kts 28°
2026-04-19 04:06 -33.30971 -70.69346 8374 ft 253 kts 13°
2026-04-19 04:06 -33.29243 -70.69183 7974 ft 249 kts 354°
2026-04-19 04:07 -33.27524 -70.69404 7655 ft 247 kts 353°
2026-04-19 04:07 -33.25844 -70.69636 7492 ft 237 kts 353°
2026-04-19 04:07 -33.24257 -70.69849 7352 ft 228 kts 353°
2026-04-19 04:07 -33.22701 -70.70052 7103 ft 223 kts 353°
2026-04-19 04:08 -33.21172 -70.70338 6781 ft 222 kts 342°
2026-04-19 04:08 -33.19843 -70.71266 6415 ft 224 kts 316°
2026-04-19 04:08 -33.18993 -70.72822 6012 ft 227 kts 290°
2026-04-19 04:08 -33.18786 -70.74694 5612 ft 231 kts 266°
2026-04-19 04:09 -33.19040 -70.76592 5288 ft 232 kts 260°
2026-04-19 04:09 -33.19456 -70.78444 5004 ft 233 kts 243°
2026-04-19 04:09 -33.20582 -70.79791 4948 ft 234 kts 205°
2026-04-19 04:09 -33.22171 -70.80093 4957 ft 229 kts 173°
2026-04-19 04:10 -33.23688 -70.79755 4890 ft 215 kts 167°
2026-04-19 04:10 -33.25144 -70.79411 4364 ft 223 kts 171°
2026-04-19 04:10 -33.26784 -70.79199 3651 ft 241 kts 177°
2026-04-19 04:10 -33.28419 -70.79149 3350 ft 233 kts 174°
2026-04-19 04:11 -33.29979 -70.79073 3083 ft 214 kts 175°
2026-04-19 04:11 -33.31401 -70.78997 2872 ft 196 kts 176°
2026-04-19 04:11 -33.32715 -70.78927 2630 ft 181 kts 176°
2026-04-19 04:11 -33.33937 -70.78862 2361 ft 170 kts 176°
2026-04-19 04:12 -33.35082 -70.78801 2115 ft 157 kts 176°
2026-04-19 04:12 -33.36077 -70.78748 1900 ft 133 kts 176°
2026-04-19 04:12 -33.36978 -70.78700 1723 ft 130 kts 176°
2026-04-19 04:12 -33.37881 -70.78655 1584 ft 125 kts 176°
2026-04-19 04:13 -33.38564 -70.78619 1570 ft 59 kts 178°
2026-04-19 04:13 -33.38837 -70.78602 1570 ft 18 kts 178°
2026-04-19 04:13 -33.38969 -70.78601 1571 ft 20 kts 186°
2026-04-19 04:13 -33.39107 -70.78648 1569 ft 21 kts 200°
2026-04-19 04:14 -33.39247 -70.78728 1570 ft 23 kts 209°
2026-04-19 04:14 -33.39394 -70.78828 1570 ft 25 kts 210°
2026-04-19 04:14 -33.39454 -70.78871 1570 ft 7 kts 211°
2026-04-19 04:14 -33.39490 -70.78919 1570 ft 9 kts 252°
2026-04-19 04:15 -33.39532 -70.78965 1570 ft 0 kts 176°
2026-04-19 04:15 -33.39543 -70.78964 1570 ft 3 kts 184°
2026-04-19 04:15 -33.39560 -70.78966 1570 ft 0 kts 184°